FW3754 Weather Reports


time (UTC)temp
C
wind
direction
speed
KPH
gust
KPH
rain 1hr
cm
rain 24hr
cm
rain mn
cm
humidity
%
barometer
mb
20220124100044 8 348 9.7 0.0 0.00 0.00 0.00 85 1015.2
20220124094538 9 335 11.3 0.0 0.00 0.00 0.00 86 1015.5
20220124093112 9 316 12.9 0.0 0.00 0.00 0.00 85 1015.6
20220124091609 9 338 11.3 0.0 0.00 0.00 0.00 87 1015.8
20220124090028 8 336 11.3 0.0 0.00 0.00 0.00 88 1015.8
20220124084616 8 312 14.5 0.0 0.00 0.00 0.00 88 1015.5
20220124083102 8 300 14.5 0.0 0.00 0.00 0.00 87 1015.4
20220124081526 8 320 12.9 0.0 0.00 0.00 0.00 87 1015.4
20220124080030 8 312 12.9 0.0 0.00 0.00 0.00 86 1015.7
20220124074537 9 309 11.3 0.0 0.00 0.00 0.00 86 1015.7
20220124073024 9 302 16.1 0.0 0.00 0.00 0.00 86 1015.7
20220124071519 9 325 12.9 0.0 0.00 0.00 0.00 87 1015.8
20220124070012 10 298 8.0 0.0 0.00 0.00 0.00 86 1015.7
20220124064533 10 300 9.7 0.0 0.00 0.00 0.00 85 1015.9
20220124063028 10 315 9.7 0.0 0.00 0.00 0.00 85 1015.8
20220124061509 10 298 8.0 0.0 0.00 0.00 0.00 84 1015.9
20220124060041 10 318 11.3 0.0 0.00 0.00 0.00 84 1016.3
20220124054507 10 315 11.3 0.0 0.00 0.00 0.00 84 1016.4
20220124053003 10 307 9.7 0.0 0.00 0.00 0.00 83 1016.5
20220124051501 10 308 9.7 0.0 0.00 0.00 0.00 84 1016.4
20220124050119 10 321 11.3 0.0 0.00 0.00 0.00 83 1016.6
20220124044655 10 315 11.3 0.0 0.00 0.00 0.00 84 1016.6
20220124043129 10 313 9.7 0.0 0.00 0.00 0.00 85 1016.7
20220124041616 10 313 11.3 0.0 0.00 0.00 0.00 83 1016.7
20220124040133 10 327 12.9 0.0 0.00 0.00 0.00 83 1017.0
20220124034557 10 329 9.7 0.0 0.00 0.00 0.00 85 1017.3
20220124033139 10 297 11.3 0.0 0.00 0.00 0.00 85 1017.3
20220124031621 10 324 12.9 0.0 0.00 0.00 0.00 84 1017.3
20220124030117 11 313 12.9 0.0 0.00 0.00 0.00 85 1017.2
20220124024610 11 317 14.5 0.0 0.00 0.00 0.00 83 1017.1
20220124023118 11 311 19.3 0.0 0.00 0.00 0.00 83 1016.9
20220124021551 11 321 17.7 0.0 0.00 0.00 0.00 84 1016.7
20220124020054 12 360 11.3 0.0 0.00 0.00 0.00 87 1016.5
20220124014554 12 326 12.9 0.0 0.00 0.00 0.00 86 1016.4
20220124013104 12 317 12.9 0.0 0.00 0.00 0.00 86 1016.4
20220124011550 12 333 14.5 0.0 0.00 0.00 0.00 85 1016.2
20220124010045 12 310 16.1 0.0 0.00 0.00 0.00 86 1016.1
20220124004545 12 321 14.5 0.0 0.00 0.00 0.00 86 1016.1
20220124003139 12 322 11.3 0.0 0.00 0.00 0.00 88 1016.0
20220124001523 12 304 9.7 0.0 0.00 0.00 0.00 88 1015.8
20220124000112 13 321 11.3 0.0 0.00 0.00 0.00 88 1015.7
20220123234520 13 318 11.3 0.0 0.00 0.00 0.00 88 1015.7
20220123233044 13 317 16.1 0.0 0.00 0.00 0.00 88 1015.8
20220123231526 13 274 14.5 0.0 0.00 0.00 0.00 88 1015.8
20220123230016 13 292 14.5 0.0 0.00 0.00 0.00 88 1015.6
20220123224512 13 320 14.5 0.0 0.00 0.00 0.00 88 1015.5
20220123223009 14 322 14.5 0.0 0.00 0.00 0.00 88 1015.5
20220123221512 14 331 12.9 0.0 0.00 0.00 0.00 87 1015.4
20220123220007 14 322 11.3 0.0 0.00 0.00 0.00 87 1015.2
20220123214506 14 315 9.7 0.0 0.00 0.00 0.00 87 1015.1
20220123213006 15 315 9.7 0.0 0.00 0.00 0.00 87 1015.1
20220123211504 14 321 14.5 0.0 0.00 0.00 0.00 86 1015.2
20220123210003 15 309 14.5 0.0 0.00 0.00 0.00 86 1015.3
20220123204503 15 329 12.9 0.0 0.00 0.00 0.00 87 1015.3
20220123203002 15 313 14.5 0.0 0.00 0.00 0.00 87 1015.2
20220123201502 15 323 11.3 0.0 0.00 0.00 0.00 87 1015.3
20220123200149 15 321 14.5 0.0 0.00 0.00 0.00 87 1015.4
20220123194622 15 321 16.1 0.0 0.00 0.00 0.00 87 1015.6
20220123193108 15 321 17.7 0.0 0.00 0.00 0.00 88 1015.6
20220123191646 15 336 16.1 0.0 0.00 0.00 0.00 88 1015.9
20220123190117 15 345 16.1 0.0 0.00 0.00 0.00 88 1015.9
20220123184608 15 310 16.1 0.0 0.00 0.00 0.00 88 1016.0
20220123183124 15 317 17.7 0.0 0.00 0.00 0.00 87 1016.3
20220123181609 15 300 16.1 0.0 0.00 0.00 0.00 87 1016.4
20220123180131 15 344 17.7 0.0 0.00 0.00 0.00 87 1016.8
20220123174558 16 309 16.1 0.0 0.00 0.00 0.00 86 1016.9
20220123173145 16 314 14.5 0.0 0.00 0.00 0.00 86 1017.1
20220123171606 16 276 16.1 0.0 0.00 0.00 0.00 85 1017.3
20220123170152 16 317 11.3 0.0 0.00 0.00 0.00 88 1017.3
20220123164618 15 331 12.9 0.0 0.00 0.00 0.00 88 1017.7
20220123163136 15 305 14.5 0.0 0.00 0.00 0.00 88 1018.3
20220123161601 15 318 12.9 0.0 0.00 0.00 0.00 88 1018.0
20220123160056 15 295 11.3 0.0 0.00 0.00 0.00 89 1018.3
20220123154617 15 306 12.9 0.0 0.00 0.00 0.00 89 1018.5
20220123153410 15 311 12.9 0.0 0.00 0.00 0.00 89 1018.4
20220123151547 14 326 16.1 0.0 0.00 0.00 0.00 89 1018.7
20220123150114 14 312 12.9 0.0 0.00 0.00 0.00 89 1018.8
20220123144552 14 323 12.9 0.0 0.00 0.00 0.00 89 1018.7
20220123143101 14 342 12.9 0.0 0.00 0.00 0.00 89 1018.2
20220123141618 14 315 12.9 0.0 0.00 0.00 0.00 89 1017.9
20220123140207 14 327 12.9 0.0 0.00 0.00 0.00 90 1017.8
20220123134550 14 319 12.9 0.0 0.00 0.00 0.00 90 1017.9
20220123133045 14 329 11.3 0.0 0.00 0.00 0.00 89 1017.9
20220123131635 14 318 12.9 0.0 0.00 0.00 0.00 89 1018.1
20220123130104 15 304 14.5 0.0 0.00 0.00 0.00 89 1018.1
20220123124625 15 331 12.9 0.0 0.00 0.00 0.00 89 1017.8
20220123121626 15 5 11.3 0.0 0.00 0.00 0.00 89 1017.4
20220123120034 15 314 9.7 0.0 0.00 0.00 0.00 89 1017.4
20220123114624 15 348 11.3 0.0 0.00 0.00 0.00 89 1017.3
20220123113054 15 317 14.5 0.0 0.00 0.00 0.00 89 1017.3
20220123111557 15 332 12.9 0.0 0.00 0.00 0.00 89 1017.1
20220123110056 15 348 14.5 0.0 0.00 0.00 0.00 89 1016.8
20220123104608 15 344 16.1 0.0 0.00 0.00 0.00 89 1016.7
20220123103039 15 323 14.5 0.0 0.00 0.00 0.00 89 1016.7
20220123101529 15 348 12.9 0.0 0.00 0.00 0.00 89 1016.6